Location: Blazny
(46.0612°N, 84.4033°W)
Time: 20:46:43
(UTC-04:00)

Envisat - Pass Details

Date: 15 September 2024
Orbit: 762 x 764 km, 98.3° (Epoch: 11 October)

Event Time Altitude Azimuth Distance (km) Brightness Sun altitude
Rises 05:07:03 0° 11° (NNE) 3,238 6.8 -22.1°
Reaches altitude 10° 05:09:22 10° 10° (N) 2,307 6.0 -21.8°
Maximum altitude 05:14:25 72° 287° (WNW) 805 2.9 -21.0°
Enters shadow 05:16:09 41° 215° (SW) 1,092 3.3 -20.7°
